GW5684 Weather Reports


time (UTC)temp
F
wind
direction
speed
knots
gust
knots
rain 1hr
in
rain 24hr
in
rain mn
in
humidity
%
barometer
mb
20260505035506 62 171 0.0 1.7 0.00 0.00 0.00 59 1011.0
20260505035007 62 171 0.0 1.7 0.00 0.00 0.00 58 1010.9
20260505034509 62 192 0.0 1.7 0.00 0.00 0.00 57 1010.8
20260505034009 62 192 0.0 2.6 0.00 0.00 0.00 57 1010.8
20260505033504 62 232 0.0 2.6 0.00 0.00 0.00 58 1010.8
20260505033010 62 184 0.0 1.7 0.00 0.00 0.00 60 1010.8
20260505032507 62 184 0.0 1.7 0.00 0.00 0.00 59 1010.8
20260505032007 62 180 0.0 1.7 0.00 0.00 0.00 59 1010.7
20260505031535 62 185 0.0 1.7 0.00 0.00 0.00 60 1010.8
20260505031007 62 185 0.0 0.0 0.00 0.00 0.00 60 1011.0
20260505030509 61 185 0.0 0.0 0.00 0.00 0.00 61 1011.0
20260505030016 61 185 0.0 1.7 0.00 0.00 0.00 61 1010.9
20260505025509 62 185 0.0 1.7 0.00 0.00 0.00 60 1010.8
20260505025008 63 185 0.0 1.7 0.00 0.00 0.00 59 1010.9
20260505024533 63 185 0.0 1.7 0.00 0.00 0.00 57 1010.9
20260505024011 64 185 0.0 1.7 0.00 0.00 0.00 56 1010.8
20260505023507 65 185 0.0 1.7 0.00 0.00 0.00 54 1010.9
20260505023010 66 185 0.0 1.7 0.00 0.00 0.00 52 1010.8
20260505022504 66 185 0.0 1.7 0.00 0.00 0.00 52 1010.9
20260505022004 66 185 0.0 1.7 0.00 0.00 0.00 52 1010.8
20260505021516 66 198 0.0 1.7 0.00 0.00 0.00 52 1010.7
20260505021011 66 207 0.0 1.7 0.00 0.00 0.00 52 1010.8
20260505020507 66 248 0.0 1.7 0.00 0.00 0.00 51 1010.9
20260505020027 66 248 0.0 1.7 0.00 0.00 0.00 51 1010.7
20260505015508 67 248 0.0 1.7 0.00 0.00 0.00 50 1010.7
20260505015007 67 214 0.0 1.7 0.00 0.00 0.00 50 1010.6
20260505014528 67 250 0.0 1.7 0.00 0.00 0.00 50 1010.6
20260505014015 67 250 0.0 1.7 0.00 0.00 0.00 50 1010.4
20260505013509 67 250 0.0 1.7 0.00 0.00 0.00 50 1010.4
20260505013024 67 88 0.0 1.7 0.00 0.00 0.00 49 1010.2
20260505012508 67 200 0.0 2.6 0.00 0.00 0.00 49 1010.1
20260505012012 67 218 0.9 2.6 0.00 0.00 0.00 49 1010.1
20260505011510 67 211 0.0 2.6 0.00 0.00 0.00 49 1010.1
20260505011005 67 234 0.0 2.6 0.00 0.00 0.00 49 1010.1
20260505010508 67 233 0.0 1.7 0.00 0.00 0.00 49 1010.2
20260505010012 68 196 0.0 2.6 0.00 0.00 0.00 49 1010.1
20260505005507 68 165 0.0 2.6 0.00 0.00 0.00 48 1010.0
20260505005007 68 167 0.0 2.6 0.00 0.00 0.00 48 1009.9
20260505004537 68 167 0.0 2.6 0.00 0.00 0.00 47 1009.9
20260505004008 68 167 0.0 1.7 0.00 0.00 0.00 47 1010.0
20260505003509 69 157 0.0 1.7 0.00 0.00 0.00 47 1010.0
20260505003023 69 205 0.0 0.9 0.00 0.00 0.00 46 1010.1
20260505002514 69 205 0.0 1.7 0.00 0.00 0.00 45 1010.1
20260505002017 69 205 0.0 1.7 0.00 0.00 0.00 45 1009.9
20260505001527 70 205 0.0 1.7 0.00 0.00 0.00 44 1009.8
20260505001014 70 205 0.0 1.7 0.00 0.00 0.00 43 1010.0
20260505000508 71 205 0.0 1.7 0.00 0.00 0.00 43 1010.0
20260505000022 71 216 0.0 1.7 0.00 0.00 0.00 42 1010.0
20260504235508 72 216 0.0 1.7 0.00 0.00 0.00 41 1009.9
20260504235006 72 216 0.0 1.7 0.00 0.00 0.00 40 1009.9
20260504234520 73 194 0.0 1.7 0.00 0.00 0.00 38 1009.9
20260504234006 73 231 0.0 2.6 0.00 0.00 0.00 40 1009.9
20260504233508 73 231 0.0 2.6 0.00 0.00 0.00 39 1009.9
20260504233022 73 223 0.9 1.7 0.00 0.00 0.00 38 1009.9
20260504232510 74 219 0.0 2.6 0.00 0.00 0.00 39 1009.7
20260504232013 74 229 0.9 2.6 0.00 0.00 0.00 37 1009.7
20260504231523 74 216 0.9 4.3 0.00 0.00 0.00 38 1009.7
20260504231007 74 211 0.9 4.3 0.00 0.00 0.00 36 1009.8
20260504230508 74 244 0.0 5.2 0.00 0.00 0.00 36 1009.7
20260504230028 75 240 1.7 7.0 0.00 0.00 0.00 35 1009.7
20260504225507 75 238 1.7 7.0 0.00 0.00 0.00 35 1009.7
20260504225010 75 226 0.9 6.1 0.00 0.00 0.00 35 1009.7
20260504224516 75 185 1.7 6.1 0.00 0.00 0.00 35 1009.6
20260504224011 75 175 0.9 4.3 0.00 0.00 0.00 36 1009.6
20260504223503 75 142 1.7 5.2 0.00 0.00 0.00 34 1009.7
20260504223006 75 230 1.7 5.2 0.00 0.00 0.00 34 1009.7
20260504222504 75 234 1.7 5.2 0.00 0.00 0.00 35 1009.7
20260504222003 76 209 1.7 7.8 0.00 0.00 0.00 34 1009.6
20260504221508 75 225 1.7 7.8 0.00 0.00 0.00 35 1009.5
20260504221005 75 213 1.7 7.0 0.00 0.00 0.00 34 1009.6
20260504220507 76 236 0.9 7.8 0.00 0.00 0.00 34 1009.6
20260504220013 76 229 2.6 7.8 0.00 0.00 0.00 33 1009.6
20260504215506 76 240 1.7 7.8 0.00 0.00 0.00 33 1009.6
20260504215008 76 182 0.9 7.0 0.00 0.00 0.00 35 1009.6
20260504214513 76 221 1.7 7.0 0.00 0.00 0.00 33 1009.6
20260504214009 76 194 0.9 6.1 0.00 0.00 0.00 35 1009.7
20260504213506 76 241 1.7 5.2 0.00 0.00 0.00 32 1009.8
20260504213020 76 221 2.6 6.1 0.00 0.00 0.00 32 1009.8
20260504212507 76 232 3.5 11.3 0.00 0.00 0.00 32 1009.8
20260504212005 76 122 2.6 11.3 0.00 0.00 0.00 33 1009.8
20260504211504 77 252 2.6 7.8 0.00 0.00 0.00 32 1009.7
20260504211001 77 9 0.9 6.1 0.00 0.00 0.00 31 1009.5
20260504210503 77 200 1.7 7.0 0.00 0.00 0.00 31 1009.6
20260504210006 77 232 1.7 7.0 0.00 0.00 0.00 31 1009.7
20260504205506 77 163 2.6 7.0 0.00 0.00 0.00 30 1009.7
20260504205006 77 228 2.6 8.7 0.00 0.00 0.00 30 1009.7
20260504204511 77 182 1.7 9.6 0.00 0.00 0.00 31 1009.7
20260504204006 76 163 1.7 9.6 0.00 0.00 0.00 30 1009.7
20260504203514 77 259 1.7 7.0 0.00 0.00 0.00 30 1009.8
20260504203017 77 258 1.7 7.0 0.00 0.00 0.00 30 1009.9
20260504202513 77 163 1.7 7.0 0.00 0.00 0.00 30 1009.8
20260504202007 77 202 1.7 7.0 0.00 0.00 0.00 31 1009.9
20260504201521 76 261 1.7 6.1 0.00 0.00 0.00 30 1009.9
20260504201008 76 260 1.7 7.8 0.00 0.00 0.00 30 1010.0
20260504200505 76 237 4.3 7.8 0.00 0.00 0.00 30 1010.0
20260504200007 76 275 3.5 7.8 0.00 0.00 0.00 30 1010.1
20260504195505 76 223 3.5 10.4 0.00 0.00 0.00 30 1010.1
20260504195003 76 232 1.7 10.4 0.00 0.00 0.00 31 1010.2
20260504194510 77 242 1.7 6.1 0.00 0.00 0.00 31 1010.2
20260504194012 77 233 1.7 7.0 0.00 0.00 0.00 30 1010.2
20260504193509 77 225 0.9 7.0 0.00 0.00 0.00 32 1010.3
20260504193014 76 234 1.7 4.3 0.00 0.00 0.00 31 1010.4
20260504192509 76 198 0.9 4.3 0.00 0.00 0.00 31 1010.4
20260504192010 76 237 0.0 4.3 0.00 0.00 0.00 32 1010.6
20260504191520 75 262 1.7 4.3 0.00 0.00 0.00 31 1010.7
20260504191012 75 207 2.6 7.8 0.00 0.00 0.00 31 1010.8
20260504190511 76 292 1.7 6.1 0.00 0.00 0.00 32 1010.8
20260504190024 76 250 0.9 7.0 0.00 0.00 0.00 32 1010.9
20260504185508 75 180 1.7 7.0 0.00 0.00 0.00 32 1011.0
20260504185004 75 142 0.9 7.0 0.00 0.00 0.00 35 1011.1
20260504184510 75 193 0.9 6.1 0.00 0.00 0.00 35 1011.2
20260504184006 75 240 2.6 6.1 0.00 0.00 0.00 31 1011.4
20260504183510 74 268 1.7 6.1 0.00 0.00 0.00 32 1011.4
20260504183012 74 263 2.6 5.2 0.00 0.00 0.00 34 1011.5
20260504182505 73 237 1.7 7.0 0.00 0.00 0.00 38 1011.5
20260504182011 74 200 2.6 9.6 0.00 0.00 0.00 33 1011.6
20260504181522 74 220 0.9 9.6 0.00 0.00 0.00 37 1011.7
20260504181007 74 208 0.9 3.5 0.00 0.00 0.00 32 1011.7
20260504180513 74 9 0.9 5.2 0.00 0.00 0.00 33 1011.8
20260504180021 73 242 1.7 5.2 0.00 0.00 0.00 34 1011.9
20260504175516 73 273 1.7 4.3 0.00 0.00 0.00 34 1012.0
20260504175008 73 244 0.9 3.5 0.00 0.00 0.00 34 1012.2
20260504174525 73 237 0.9 4.3 0.00 0.00 0.00 35 1012.2
20260504174005 73 238 1.7 5.2 0.00 0.00 0.00 34 1012.2
20260504173506 73 214 0.9 5.2 0.00 0.00 0.00 35 1012.1
20260504173010 73 165 0.9 5.2 0.00 0.00 0.00 39 1012.3
20260504172504 72 232 0.9 5.2 0.00 0.00 0.00 35 1012.3
20260504172006 72 273 0.0 5.2 0.00 0.00 0.00 37 1012.4
20260504171516 72 258 1.7 5.2 0.00 0.00 0.00 34 1012.6
20260504171008 72 195 1.7 5.2 0.00 0.00 0.00 35 1012.6
20260504170508 72 235 1.7 6.1 0.00 0.00 0.00 36 1012.7
20260504151007 66 240 0.9 4.3 0.00 0.00 0.00 39 1013.8
20260504150511 66 268 0.9 4.3 0.00 0.00 0.00 43 1013.8
20260504141008 62 215 1.7 5.2 0.00 0.00 0.00 47 1014.2
20260504140508 61 213 0.9 1.7 0.00 0.00 0.00 48 1014.2
20260504130504 56 225 0.9 3.5 0.00 0.00 0.00 52 1014.7
20260504110506 47 176 0.0 1.7 0.00 0.00 0.00 75 1015.3
20260504100503 48 176 0.0 1.7 0.00 0.00 0.00 73 1014.9
20260504082006 48 98 0.0 0.0 0.00 0.00 0.00 72 1015.4
20260504081522 48 98 0.0 0.0 0.00 0.00 0.00 71 1015.4
20260504081011 48 98 0.0 0.0 0.00 0.00 0.00 70 1015.4
20260504080511 48 98 0.0 0.0 0.00 0.00 0.00 70 1015.4
20260504050505 46 98 0.0 0.0 0.00 0.00 0.00 72 1015.7
20260504050020 47 98 0.0 0.0 0.00 0.00 0.00 72 1015.6
20260504045505 47 98 0.0 0.0 0.00 0.00 0.00 71 1015.6
20260504045005 47 98 0.0 0.0 0.00 0.00 0.00 71 1015.6
20260504044506 46 98 0.0 0.0 0.00 0.00 0.00 72 1015.5
20260504044003 46 98 0.0 0.0 0.00 0.00 0.00 73 1015.6
20260504043503 45 98 0.0 0.0 0.00 0.00 0.00 74 1015.5
20260504043004 44 98 0.0 0.0 0.00 0.00 0.00 74 1015.5
20260504042504 44 98 0.0 0.0 0.00 0.00 0.00 75 1015.5
20260504042003 44 98 0.0 0.0 0.00 0.00 0.00 75 1015.4
20260504041510 43 98 0.0 0.0 0.00 0.00 0.00 75 1015.5
20260504041003 43 98 0.0 0.0 0.00 0.00 0.00 74 1015.4
20260504040504 44 98 0.0 0.0 0.00 0.00 0.00 73 1015.4
20260504040010 44 98 0.0 0.0 0.00 0.00 0.00 73 1015.5